Location: Columbia
(38.9520°N, 92.3340°W)
Time: 14:54:07
(UTC-05:00)

CZ-2C R/B - Visible Passes

Search period start: 30 September 2014 00:00
Search period end: 10 October 2014 00:00
Orbit: 706 x 909 km, 98.1° (Epoch: 30 September)

Date Brightness Start Highest point End Pass type
(mag) Time Alt. Az. Time Alt. Az. Time Alt. Az.
30 Sep 6.2 02:31:33 11° NE 02:31:33 11° NE 02:31:55 10° NE visible
30 Sep 5.1 04:12:39 22° N 04:12:39 22° N 04:14:33 10° NNW visible
01 Oct 5.3 03:48:05 21° N 03:48:05 21° N 03:49:57 10° N visible
02 Oct 5.6 03:23:31 18° NNE 03:23:31 18° NNE 03:25:09 10° N visible
02 Oct 5.4 05:04:37 12° NNW 05:04:37 12° NNW 05:05:02 10° NNW visible
03 Oct 5.9 02:58:57 14° NNE 02:58:57 14° NNE 03:00:03 10° NNE visible
03 Oct 5.3 04:40:03 15° NNW 04:40:03 15° NNW 04:40:56 10° NNW visible
04 Oct 5.4 04:15:29 16° NNW 04:15:29 16° NNW 04:16:35 10° NNW visible
05 Oct 5.5 03:50:55 16° N 03:50:55 16° N 03:52:01 10° N visible
06 Oct 5.8 03:26:22 14° N 03:26:22 14° N 03:27:14 10° N visible
07 Oct 6.1 03:01:49 11° NNE 03:01:49 11° NNE 03:02:11 10° NNE visible
07 Oct 5.7 04:42:55 10° NNW 04:42:55 10° NNW 04:42:56 10° NNW visible
08 Oct 5.7 04:18:22 11° NNW 04:18:22 11° NNW 04:18:36 10° NNW visible
09 Oct 5.8 03:53:50 11° N 03:53:50 11° N 03:54:03 10° N visible
